www.pogodaiklimat.ru

Погода и климат >> Архив погоды >> Италия >> Венеция


АРХИВ ПОГОДЫ в Венеции

Время (UTC), дата Ветер
(напр.,м/с)
 
Видим.   Явления Облачность Т
(С)
Тd
(С)
f
(%)
Тe
(С)
Тes
(С)
Комфортность P
(гПа)
Po
(гПа)
Тmin
(С)
Tmax
(С)
R
(мм)
R24
(мм)
S
(см)
00 18.03 СВ 2 10 км 8/8 180 м
[Frnb]
+11.9 +10.9 94 +11 +11 тепло 1010.4 1010.1
03 18.03 штиль 0 3000 м дымка 9/9 120 м
[Frnb]
+10.7 +10.1 96 +10 +10 тепло 1009.3 1009.0
06 18.03 ЮВ 2 20 км 9/9 1500 м
[Sc]
+11.2 +8.6 84 +10 +10 тепло 1010.1 1009.8 +10.0
09 18.03 С 7 20 км слаб. дождь 9/9 450 м
[Cu Sc]
+8.1 +6.1 87 +4 +4 прохладно 1013.3 1013.1
12 18.03 СВ 8 20 км {дождь} 9/9 300 м
[Cu Sc]
+7.6 +5.1 84 +3 +3 очень
холодно
1016.2 1015.9 3
15 18.03 В 10 10 км дымка {туман} 6/0 300 м
[Ac und]
+7.7 +4.1 78 +2 +2 очень
холодно
1016.1 1015.8
18 18.03 СВ 7 10 км ясно +8.1 +3.9 75 +4 +4 холодно 1018.0 1017.8 +12.2 3
21 18.03 С 4 н/о н/о +5.8 +2.5 79 +2 +2 холодно 1020.3 1020.0
00 19.03 С 3 20 км 6/6 2000 м
[Cb calv]
+5.8 +2.0 77 +3 +3 прохладно 1020.5 1020.2
03 19.03 СВ 2 20 км 6/6 2000 м
[Sc]
+5.4 +2.4 81 +3 +3 по сезону 1020.4 1020.1
06 19.03 С 3 20 км 8/0
[Ac und]
+6.1 +1.8 74 +3 +4 по сезону 1021.8 1021.6 +4.8
09 19.03 СВ 7 10 км ясно +9.9 +0.6 52 +6 +8 по сезону 1023.2 1022.9
12 19.03 СВ 6 10 км ясно +11.5 +1.4 50 +9 +14 прохладно 1023.6 1023.4
15 19.03 В 5 30 км 4/0
[Cc]
+11.8 +2.3 52 +10 +11 по сезону 1023.4 1023.1
18 19.03 СВ 5 30 км ясно +9.5 +1.9 59 +7 +7 по сезону 1025.0 1024.8 +12.2
21 19.03 С 4 25 км ясно +7.1 +0.3 62 +4 +4 прохладно 1027.1 1026.9
00 20.03 С 5 10 км ясно +6.9 +0.5 64 +3 +3 прохладно 1028.2 1027.9
03 20.03 С 4 н/о н/о +4.7 -0.3 70 +1 +1 прохладно 1028.8 1028.5
06 20.03 С 4 >70 км ясно +3.8 -0.9 71 -1 -0 холодно 1030.3 1030.0 +3.4
09 20.03 В 7 >70 км ясно +10.8 +0.4 49 +8 +10 по сезону 1031.6 1031.3
12 20.03 В 4 30 км ясно +12.7 -2.2 35 +11 +19 по сезону 1030.9 1030.7
15 20.03 В 5 30 км ясно +12.8 -0.7 39 +11 +13 по сезону 1029.9 1029.7
18 20.03 В 6 55 км ясно +10.4 +1.2 53 +8 +8 по сезону 1030.9 1030.6 +13.4
21 20.03 С 4 25 км ясно +7.6 -2.4 49 +5 +5 прохладно 1032.2 1031.9
00 21.03 С 4 30 км ясно +5.5 -3.2 53 +2 +2 прохладно 1032.8 1032.6
03 21.03 С 4 22 км ясно +4.7 -3.2 57 +1 +1 прохладно 1032.2 1032.0
06 21.03 С 4 30 км ясно +4.6 -3.1 57 +1 +2 прохладно 1033.1 1032.8 +4.2
09 21.03 СВ 7 30 км ясно +11.3 -1.9 40 +9 +11 по сезону 1033.4 1033.2
12 21.03 В 4 25 км ясно +14.5 -0.5 36 +13 +21 по сезону 1032.4 1032.1
15 21.03 ЮВ 3 20 км ясно +14.8 -1.0 34 +14 +18 тепло 1030.5 1030.3
18 21.03 ЮЗ 2 30 км ясно +11.4 0.0 45 +11 +11 по сезону 1030.2 1030.0 +15.6
21 21.03 С 1 20 км н/о +10.8 -0.3 46 +11 +11 тепло 1031.3 1031.0
00 22.03 С 2 25 км ясно +7.4 -0.3 58 +6 +6 по сезону 1031.3 1031.1
06 22.03 СЗ 2 25 км ясно +4.5 -0.7 69 +3 +3 по сезону 1030.6 1030.4 +4.7
09 22.03 С 4 20 км ясно +14.7 +0.3 37 +14 +19 тепло 1031.1 1030.9
12 22.03 В 3 20 км ясно +16.6 -1.9 28 +17 +27 тепло 1029.9 1029.7
15 22.03 Ю 3 10 км ясно +17.0 -1.5 28 +17 +20 тепло 1027.7 1027.4
18 22.03 ЮЗ 3 10 км ясно +12.7 +1.9 48 +12 +12 тепло 1027.2 1026.9 +17.5
21 22.03 СЗ 2 10 км ясно +10.5 -0.4 47 +10 +10 по сезону 1027.2 1027.0
00 23.03 С 2 20 км ясно +9.6 -0.8 48 +8 +8 по сезону 1026.8 1026.5
03 23.03 С 3 н/о н/о +8.5 -0.3 54 +6 +6 по сезону 1025.7 1025.5
06 23.03 С 4 20 км ясно +9.8 -0.4 49 +7 +8 по сезону 1025.9 1025.6 +8.3
09 23.03 С 3 50 км ясно +17.3 +2.2 36 +17 +24 тепло 1026.0 1025.7
12 23.03 В 3 30 км ясно +20.5 +2.7 31 +21 +31 комфорт 1025.0 1024.7
15 23.03 Ю 2 >70 км ясно +18.9 +4.2 38 +20 +23 тепло 1023.4 1023.1
18 23.03 ЮЗ 3 >70 км ясно +14.4 +6.9 61 +14 +14 тепло 1023.0 1022.7 +21.0
21 23.03 ЮЗ 2 30 км ясно +13.0 +7.4 69 +13 +13 тепло 1023.8 1023.5
00 24.03 10 км ясно +11.1 +6.3 72 1023.7 1023.4
03 24.03 С 2 н/о н/о +8.0 +4.0 76 +7 +7 по сезону 1022.9 1022.7
06 24.03 С 2 25 км ясно +8.3 +4.5 77 +7 +8 по сезону 1022.9 1022.6 +7.2
09 24.03 20 км ясно +19.3 +5.5 40 1022.4 1022.1
12 24.03 ЮВ 3 25 км ясно +20.9 +3.5 32 +22 +32 комфорт 1020.7 1020.4
15 24.03 ЮВ 3 20 км ясно +19.7 +6.7 43 +21 +24 комфорт 1017.9 1017.6
18 24.03 ЮВ 2 20 км ясно +14.9 +8.2 64 +15 +15 тепло 1017.0 1016.8 +21.3
21 24.03 Ю 3 15 км ясно +13.6 +7.3 66 +13 +13 тепло 1017.1 1016.8

 

Местоположение метеостанции Венеция (Италия): широта 45.50 долгота 12.33 высота над уровнем моря 6 м.

В архиве по умолчанию представлена погода в Венеции за последнюю неделю. Архивные данные за месяц целиком и за предыдущие месяцы, начиная с января 2011 года, Вы можете получить, выбрав интересующий диапазон дат из раскрывающегося списка и нажав кнопку "Ввод!".


*Определитесь, кто Вы:
робот инопланетянин человек

Внимание! Время в таблицах - всемирное. Для получения местного времени необходимо прибавить поправку, которая равна 1 ч.

Смотрите также архив погоды в соседних городах и на ближайших метеорологических станциях:

Погода в Венеция аэропорту (Италия) (9 км)
Погода в Тревизо (Италия) (20 км)
Погода в Тревизо аэропорту (Италия) (27 км)
Погода в Конкордия-Саджиттарии (Италия) (49 км)
Погода в Авиано (Италия) (63 км)
Погода на Базе ВВС Авиано (Италия) (63 км)
Погода на Базе ВВС Риволто (Италия) (76 км)
Погода в Ферраре (Италия) (93 км)
Погода в Ронки-деи-Леджонари (Италия) (96 км)
Погода в Портороже (Словения) (97 км)

Пояснения к столбцам:

Ветер - указаны скорость ветра в м/с - средняя за 10 мин, порывы в срок и между сроками (в фигурных скобках) и направление, откуда дует ветер: С - северный, СВ - северо-восточный, В - восточный, ЮВ - юго-восточный, Ю - южный, ЮЗ - юго-западный, З - западный, СЗ - северо-западный.
Видимость - горизонтальная дальность видимости в метрах или километрах. При видимости от 1 до 10 км при отсутствии осадков обычно наблюдается дымка, при ухудшении видимости до 1 км и менее - туман. В сухую погоду видимость может ухудшаться дымом, пылью или мглою.
Явления - указаны атмосферные явления, наблюдавшиеся в срок или в последний час перед сроком; фигурными скобками обозначены явления, наблюдавшиеся между сроками (за 1-3 часа до срока); квадратными скобками обозначены град или гололедные отложения с указанием их диаметра в мм.
Облачность - указаны через наклонную черту общая и нижняя облачность в баллах и высота нижней границы облаков в метрах; квадратными скобками обозначены формы облаков: Ci - перистые, Cs - перисто-слоистые, Cc - перисто-кучевые, Ac - высококучевые, As - высокослоистые, Sc - слоисто-кучевые, Ns - слоисто-дождевые, Cu - кучевые, Cb - кучево-дождевые. Подробнее классификацию облаков см. в Атласе облаков (PDF).
T - Температура воздуха - температура, измеренная на высоте 2 м над землей.
Td - Температура точки росы - температура, при понижении до которой содержащийся в воздухе водяной пар достигнет насыщения.
f - Относительная влажность воздуха - влажноcть воздуха, измеренная на высоте 2 м над землей.
Te - Эффективная температура - температура, которую ощущает одетый по сезону человек в тени. Характеристика душности погоды. При расчете учитывается влияние влажности воздуха и скорости ветра на теплоощущения человека.
Tes - Эффективная температура на солнце - температура, которую ощущает человек, с поправкой на солнечный нагрев. Характеристика знойности погоды. Зависит от высоты солнца над горизонтом, облачности и скорости ветра. Ночью, в пасмурную погоду, а также при ветре 12 м/с и более поправка равна нулю.
P - Атмосферное давление - приведенное к уровню моря атмосферное давление.
Po - Атмосферное давление - измеренное на уровне метеостанции атмосферное давление.
Tmin - Минимальная температура - минимум температуры воздуха на высоте 2 м над землей.
Tmax - Максимальная температура - максимум температуры воздуха на высоте 2 м над землей.
R - Количество осадков - Количество выпавших осадков за период времени, мм. При наведении курсора мыши на число - период времени, за который выпало указанное количество осадков.
R24 - Количество осадков - Количество выпавших осадков за 24 часа, мм.
S - Снежный покров - Высота снежного покрова, см. При наведении курсора мыши на число - состояние снежного покрова и степень покрытия местности в баллах.